Waarnemingen

Advertentie
Mijn weer
Kolmaardenstroemsfors, Zweden (2558): temperatuur & dauwpunt: 19.11.2017 02:00:00 - 25.11.2017 02:00:00 (CET)Kolmaardenstroemsfors, Zweden (2558): windsnelheid & windstoten: 19.11.2017 02:00:00 - 25.11.2017 02:00:00 (CET)Kolmaardenstroemsfors, Zweden (2558): windrichting: 19.11.2017 02:00:00 - 25.11.2017 02:00:00 (CET)Kolmaardenstroemsfors, Zweden (2558): luchtdruk: 19.11.2017 02:00:00 - 25.11.2017 02:00:00 (CET)Kolmaardenstroemsfors, Zweden (2558): zicht: 19.11.2017 02:00:00 - 25.11.2017 02:00:00 (CET)Kolmaardenstroemsfors, Zweden (2558): neerslag: 19.11.2017 02:00:00 - 25.11.2017 02:00:00 (CET)
Datum & Tijd tt [°C] td [°C] ff [km/u] ff [kn] fx [km/u] fx [kn] dd ppp [hPa] vv [km] rr [mm]
25.11.2017 02:00:00 1,5 1,2 9 5 18 10 ZW 1005,9 1,7 0,0
25.11.2017 01:00:00 1,4 1,1 8 4 18 10 WZW 1005,6 6 0,0
25.11.2017 00:00:00 1,6 1,2 9 5 17 9 WZW 1005,4 11 0,0
24.11.2017 23:00:00 2,1 1,5 8 4 14 8 ZW 1005,2 15 0,0
24.11.2017 22:00:00 2,5 1,8 7 4 14 7 ZW 1004,9 17 0,0
24.11.2017 21:00:00 2,7 1,8 7 4 14 7 ZW 1004,9 21 0,0
24.11.2017 20:00:00 2,9 2,0 7 4 13 7 ZW 1004,8 21 0,0
24.11.2017 19:00:00 2,9 2,0 7 4 11 6 ZW 1004,6 23 0,0
24.11.2017 18:00:00 2,9 1,9 5 3 12 6 ZZW 1004,5 21 0,0
24.11.2017 17:00:00 3,3 2,1 6 3 17 9 Z 1004,3 27 0,0
24.11.2017 16:00:00 3,7 1,9 5 3 22 12 ZZW 1004,2 27 0,0
24.11.2017 15:00:00 4,4 1,9 8 5 22 12 ZZW 1003,5 32 0,0
24.11.2017 14:00:00 4,7 2,4 9 5 20 11 ZZW 1003,5 36 0,0
24.11.2017 13:00:00 4,8 2,3 8 5 22 12 ZZW 1003,6 33 0,0
24.11.2017 12:00:00 4,8 2,3 7 4 24 13 ZZW 1003,4 36 0,0
24.11.2017 11:00:00 4,9 2,6 9 5 24 13 ZW 1003,3 41 0,0
24.11.2017 10:00:00 4,8 2,5 11 6 24 13 ZZW 1002,7 37 0,0
24.11.2017 09:00:00 4,6 2,9 9 5 24 13 ZW 1002,1 30 0,0
24.11.2017 08:00:00 4,7 3,0 9 5 29 16 ZW 1001,7 29 0,0
24.11.2017 07:00:00 5,0 3,2 11 6 29 16 ZW 1000,3 24 0,0
24.11.2017 06:00:00 4,2 2,7 10 5 29 15 ZZW 999,6 17 0,0
24.11.2017 05:00:00 3,8 2,6 13 7 29 15 Z 999,0 15 0,0
24.11.2017 04:00:00 3,5 2,3 13 7 26 14 Z 998,6 16 0,0
24.11.2017 03:00:00 3,6 2,3 9 5 23 12 Z 998,5 16 0,0
24.11.2017 02:00:00 4,5 2,5 9 5 25 13 Z 998,6 18 0,0
24.11.2017 01:00:00 4,8 2,8 11 6 29 16 ZW 998,3 21 0,0
24.11.2017 00:00:00 5,6 3,1 13 7 34 18 WZW 997,5 24 0,0
23.11.2017 23:00:00 7,1 5,4 14 7 34 18 WZW 996,5 34 0,0
23.11.2017 22:00:00 7,3 6,4 12 7 29 16 Z 994,9 29 0,0
23.11.2017 21:00:00 6,8 6,2 10 6 23 13 Z 994,3 14 0,0
23.11.2017 20:00:00 6,3 5,9 9 5 28 15 Z 994,0 9 0,2
23.11.2017 19:00:00 6,3 5,6 11 6 28 15 Z 993,9 9 0,9
23.11.2017 18:00:00 7,1 4,9 14 7 26 14 Z 993,9 39 0,0
23.11.2017 17:00:00 7,0 5,1 13 7 26 14 ZZO 993,8 36 0,0
23.11.2017 16:00:00 7,2 5,5 11 6 23 12 ZZO 993,7 30 0,0
23.11.2017 15:00:00 7,1 5,9 11 6 23 12 ZO 994,6 27 0,0
23.11.2017 14:00:00 6,9 5,8 9 5 19 10 ZZO 995,2 27 0,0
23.11.2017 13:00:00 6,6 5,7 10 5 19 10 ZZO 995,3 18 0,0
23.11.2017 12:00:00 6,0 5,3 9 5 20 11 ZZO 995,5 11 0,0
23.11.2017 11:00:00 5,7 5,3 9 5 23 13 ZZO 995,7 6 0,0
23.11.2017 10:00:00 5,5 5,2 11 6 25 13 ZZO 995,8 2,7 0,0
23.11.2017 09:00:00 5,7 5,6 11 6 27 14 ZZO 995,8 1,9 0,0
23.11.2017 08:00:00 5,8 5,5 11 6 34 18 ZZO 996,1 0,8 0,0
23.11.2017 07:00:00 6,5 6,4 16 8 34 18 Z 995,9 1,5 0,0
23.11.2017 06:00:00 6,9 6,8 14 8 30 16 Z 995,9 1,2 0,0
23.11.2017 05:00:00 7,0 6,9 13 7 30 16 Z 996,2 0,7 0,0
23.11.2017 04:00:00 6,6 6,5 14 8 30 16 Z 996,4 0,5 0,0
23.11.2017 03:00:00 6,2 6,1 11 6 25 14 Z 997,0 0,3 0,3
23.11.2017 02:00:00 5,7 5,6 10 6 26 14 Z 997,4 0,2 0,1
23.11.2017 01:00:00 5,3 5,2 9 5 30 16 ZZO 997,9 0,2 0,2
23.11.2017 00:00:00 4,8 4,7 12 7 34 18 ZZO 998,5 0,4 2,0
22.11.2017 23:00:00 4,6 4,5 13 7 34 19 ZO 999,2 1,1 3,2
22.11.2017 22:00:00 4,1 4,0 15 8 38 21 ZO 999,8 4,2 1,9
22.11.2017 21:00:00 3,9 3,8 15 8 38 21 ZO 1000,8 1,4 1,8
22.11.2017 20:00:00 3,3 3,2 16 9 37 20 ZO 1001,7 4,2 1,7
22.11.2017 19:00:00 2,6 2,5 16 9 39 21 ZO 1002,9 1,8 0,5
22.11.2017 18:00:00 2,1 1,8 18 10 40 22 OZO 1003,6 2,7 0,5
22.11.2017 17:00:00 1,7 1,4 17 9 42 23 ZO 1004,1 7 0,2
22.11.2017 16:00:00 1,4 1,0 18 10 42 23 ZO 1004,9 16 0,6
22.11.2017 15:00:00 1,4 0,7 14 8 37 20 ZO 1005,5 6 0,2
22.11.2017 14:00:00 1,3 0,0 17 9 35 19 OZO 1006,1 50 0,0
22.11.2017 13:00:00 0,6 -0,1 8 4 35 19 ZO 1007,3 9 0,2
22.11.2017 12:00:00 -0,5 -1,2 8 4 23 12 O 1008,0 11 0,0
22.11.2017 11:00:00 -1,7 -2,3 8 5 23 12 ONO 1008,3 22 0,0
22.11.2017 10:00:00 -2,7 -3,4 11 6 21 11 ONO 1009,3 29 0,0
22.11.2017 09:00:00 -3,3 -4,1 10 5 18 10 ONO 1009,7 22 0,0
22.11.2017 08:00:00 -3,6 -4,4 6 4 19 10 NO 1010,2 34 0,0
22.11.2017 07:00:00 -3,4 -4,2 6 3 19 10 O 1010,5 28 0,0
22.11.2017 06:00:00 -3,1 -4,1 8 5 18 10 OZO 1010,5 41 0,0
22.11.2017 05:00:00 -3,2 -4,0 6 4 12 7 OZO 1011,1 27 0,0
22.11.2017 04:00:00 -3,5 -4,5 5 3 11 6 O 1011,3 38 0,0
22.11.2017 03:00:00 -3,5 -4,6 5 3 10 5 ONO 1011,7 37 0,0
22.11.2017 02:00:00 -3,3 -4,4 4 2 9 5 NO 1011,9 50 0,0
22.11.2017 01:00:00 -3,2 -4,5 2 1 8 5 NNO 1012,2 50 0,0
22.11.2017 00:00:00 -3,1 -4,4 0 0 9 5 N 1012,2 50 0,0
21.11.2017 23:00:00 -3,0 -4,3 4 2 14 7 NNW 1012,5 40 0,0
21.11.2017 22:00:00 -2,8 -3,9 3 1 14 7 W 1012,5 38 0,0
21.11.2017 21:00:00 -2,7 -3,7 4 2 11 6 N 1012,1 28 0,0
21.11.2017 20:00:00 -2,6 -3,4 3 2 10 5 NNW 1012,1 34 0,0
21.11.2017 19:00:00 -2,5 -3,3 4 2 9 5 NNW 1012,3 35 0,0
21.11.2017 18:00:00 -2,4 -3,2 4 2 9 5 NW 1012,4 25 0,0
21.11.2017 17:00:00 -2,3 -3,3 3 2 10 5 NW 1012,0 32 0,0
21.11.2017 16:00:00 -2,3 -3,6 4 2 16 9 N 1011,6 50 0,0
21.11.2017 15:00:00 -2,1 -3,5 4 2 16 9 NNW 1011,4 50 0,0
21.11.2017 14:00:00 -1,8 -3,5 6 3 16 8 N 1011,2 50 0,0
21.11.2017 13:00:00 -1,9 -3,5 4 2 14 7 N 1011,3 50 0,0
21.11.2017 12:00:00 -1,9 -2,9 4 2 15 8 N 1011,5 28 0,0
21.11.2017 11:00:00 -2,5 -3,0 7 4 15 8 NW 1011,7 6 0,1
21.11.2017 10:00:00 -2,7 -3,1 6 3 18 10 NW 1011,5 4,3 0,0
21.11.2017 09:00:00 -3,2 -3,6 9 5 18 10 NNW 1011,0 4,1 0,0
21.11.2017 08:00:00 -3,7 -4,1 9 5 20 11 N 1010,6 4,3 0,0
21.11.2017 07:00:00 -3,7 -4,2 9 5 20 11 NNW 1010,3 12 0,0
21.11.2017 06:00:00 -3,8 -4,3 8 4 17 9 NNW 1010,3 19 0,0
21.11.2017 05:00:00 -4,1 -4,8 10 6 18 10 NW 1010,3 20 0,1
21.11.2017 04:00:00 -4,2 -4,9 11 6 18 10 NW 1010,5 20 0,0
21.11.2017 03:00:00 -4,1 -4,8 6 4 16 9 WNW 1010,5 39 0,0
21.11.2017 02:00:00 -3,8 -4,5 5 3 16 9 WNW 1010,3 49 0,0
21.11.2017 01:00:00 -3,9 -4,7 6 4 20 11 NW 1010,2 42 0,0
21.11.2017 00:00:00 -4,1 -4,9 8 5 22 12 NNW 1010,1 50 0,0
20.11.2017 23:00:00 -4,2 -5,0 9 5 23 13 NW 1010,4 49 0,0
20.11.2017 22:00:00 -4,4 -5,2 12 6 23 13 NW 1010,3 49 0,0
20.11.2017 21:00:00 -4,8 -5,5 12 6 26 14 NW 1010,2 50 0,0
20.11.2017 20:00:00 -5,2 -5,9 11 6 26 14 NW 1009,8 41 0,0
20.11.2017 19:00:00 -4,6 -5,4 14 8 26 14 NW 1010,0 48 0,0
20.11.2017 18:00:00 -4,5 -5,2 11 6 22 12 NW 1009,9 35 0,0
20.11.2017 17:00:00 -4,3 -5,0 10 5 21 12 WNW 1009,6 50 0,0
20.11.2017 16:00:00 -3,8 -4,8 6 3 21 12 NW 1009,3 50 0,0
20.11.2017 15:00:00 -3,1 -4,4 10 5 21 11 NW 1008,9 50 0,0
20.11.2017 14:00:00 -2,4 -4,1 9 5 24 13 WNW 1008,8 50 0,0
20.11.2017 13:00:00 -2,3 -4,0 9 5 25 14 NW 1008,6 50 0,0
20.11.2017 12:00:00 -2,3 -4,0 14 8 25 14 NNW 1008,4 50 0,0
20.11.2017 11:00:00 -2,5 -3,9 9 5 24 13 NW 1008,4 43 0,0
20.11.2017 10:00:00 -2,4 -3,7 10 5 34 18 NW 1008,0 50 0,0
20.11.2017 09:00:00 -2,6 -3,6 10 6 39 21 NNW 1007,4 50 0,0
20.11.2017 08:00:00 -2,7 -3,5 13 7 39 21 N 1006,6 50 0,0
20.11.2017 07:00:00 -2,5 -3,2 16 9 36 19 N 1006,0 50 0,0
20.11.2017 06:00:00 -2,5 -3,0 15 8 35 19 NNW 1005,5 11 0,0
20.11.2017 05:00:00 -2,5 -3,0 14 8 35 19 NNW 1005,0 3,1 0,2
20.11.2017 04:00:00 -2,4 -3,0 13 7 35 19 NNW 1004,5 2,4 0,2
20.11.2017 03:00:00 -2,5 -3,0 13 7 27 14 NW 1004,2 1,7 0,2
20.11.2017 02:00:00 -2,8 -3,6 11 6 26 14 NW 1004,1 6 0,0
20.11.2017 01:00:00 -2,7 -3,5 11 6 24 13 NW 1003,9 50 0,0
20.11.2017 00:00:00 -2,9 -4,0 10 6 20 11 NW 1003,8 17 0,0
19.11.2017 23:00:00 -2,8 -4,1 7 4 16 9 NW 1003,8 50 0,0
19.11.2017 22:00:00 -2,8 -4,4 8 4 19 11 NNW 1003,6 50 0,0
19.11.2017 21:00:00 -2,9 -4,6 6 3 24 13 NNW 1003,4 50 0,0
19.11.2017 20:00:00 -3,0 -4,7 10 5 28 15 N 1002,9 50 0,0
19.11.2017 19:00:00 -3,2 -4,8 12 7 30 16 NNW 1002,3 50 0,0
19.11.2017 18:00:00 -3,4 -4,7 13 7 30 16 N 1001,9 40 0,0
19.11.2017 17:00:00 -3,2 -4,3 14 8 29 16 N 1001,5 50 0,0
19.11.2017 16:00:00 -2,4 -3,5 15 8 31 17 N 1001,0 50 0,0
19.11.2017 15:00:00 -1,7 -2,4 11 6 35 19 N 1000,2 10 0,0
19.11.2017 14:00:00 -1,3 -2,0 13 7 35 19 N 999,1 50 0,0
19.11.2017 13:00:00 -0,9 -1,3 14 8 32 18 NNO 998,6 50 0,0
19.11.2017 12:00:00 -0,7 -1,0 14 8 37 20 NNO 998,0 47 0,0
19.11.2017 11:00:00 -0,6 -0,7 15 8 37 20 NNO 997,4 22 0,0
19.11.2017 10:00:00 -0,1 -0,2 16 8 35 19 NNO 996,5 12 0,0
19.11.2017 09:00:00 0,0 -0,1 13 7 31 17 NNO 995,7 3,6 0,1
19.11.2017 08:00:00 0,0 -0,1 13 7 28 15 NNO 994,9 3,4 0,3
19.11.2017 07:00:00 -0,2 -0,3 9 5 23 12 NO 994,3 1,1 1,0
19.11.2017 06:00:00 -0,3 -0,4 8 4 19 11 NO 994,0 1,0 0,3
19.11.2017 05:00:00 0,0 -0,1 9 5 16 9 ONO 993,6 1,4 0,0
19.11.2017 04:00:00 0,2 0,1 5 3 12 6 NO 993,3 0,3 0,0
19.11.2017 03:00:00 0,3 0,2 4 2 12 6 ZO 993,2 0,2 0,1
19.11.2017 02:00:00 0,2 -0,1 5 3 12 7 ZZO 993,5 0,6 0,3

tt = temperatuur
td = dauwpunt
ff = windsnelheid
fx = windstoten
dd = windrichting
ppp = luchtdruk
vv = zicht
rr = neerslag

Weerstations in de omgeving